Location: N�rnberg
(49.4489°N, 11.0797°E)
Time: 22:33:15
(UTC+02:00)

ISS - Visible Passes

Search period start: 26 July 2017 00:00
Search period end: 05 August 2017 00:00
Orbit: 400 x 408 km, 51.6° (Epoch: 27 July)

Date Brightness Start Highest point End Pass type
(mag) Time Alt. Az. Time Alt. Az. Time Alt. Az.
26 Jul -3.2 00:51:59 10° WNW 00:55:12 56° N 00:56:42 27° ENE visible
26 Jul -1.5 02:28:32 10° WNW 02:29:15 16° WNW 02:29:15 16° WNW visible
26 Jul -3.9 22:23:01 10° WSW 22:26:15 72° SSE 22:29:30 10° ENE visible
26 Jul -3.2 23:59:37 10° W 00:02:50 56° N 00:05:20 15° ENE visible
27 Jul -2.3 01:36:13 10° WNW 01:37:56 28° WNW 01:37:56 28° WNW visible
27 Jul -3.4 23:07:13 10° W 23:10:27 62° N 23:13:41 10° ENE visible
28 Jul -3.5 00:43:53 10° WNW 00:46:58 64° NNW 00:46:58 64° NNW visible
28 Jul -3.7 22:14:49 10° WSW 22:18:04 76° NNW 22:21:20 10° ENE visible
28 Jul -3.3 23:51:31 10° WNW 23:54:45 57° N 23:56:08 29° ENE visible
29 Jul -1.4 01:28:04 10° WNW 01:28:45 15° WNW 01:28:45 15° WNW visible
29 Jul -3.2 22:59:07 10° W 23:02:20 55° N 23:05:21 11° ENE visible
30 Jul -2.9 00:35:42 10° WNW 00:37:57 41° WNW 00:37:57 41° WNW visible
30 Jul -3.3 22:06:41 10° W 22:09:55 59° N 22:13:09 10° ENE visible
30 Jul -3.7 23:43:20 10° WNW 23:46:36 71° NNE 23:47:12 53° ENE visible
31 Jul -3.4 22:50:57 10° WNW 22:54:11 59° N 22:56:29 17° E visible
01 Aug -2.1 00:27:28 10° WNW 00:29:05 26° W 00:29:05 26° W visible
01 Aug -3.2 21:58:30 10° WNW 22:01:44 55° N 22:04:57 10° E visible
01 Aug -4.0 23:35:04 10° WNW 23:38:20 80° SSW 23:38:22 80° S visible
02 Aug -3.8 22:42:40 10° WNW 22:45:56 77° NNE 22:47:40 25° E visible
03 Aug -1.5 00:19:19 10° W 00:20:18 17° W 00:20:18 17° W visible
03 Aug -3.4 21:50:15 10° WNW 21:53:29 62° N 21:56:43 10° E visible
03 Aug -3.3 23:26:47 10° WNW 23:29:36 44° SW 23:29:36 44° SW visible
04 Aug -3.9 22:34:19 10° WNW 22:37:34 71° SSW 22:38:56 31° SE visible
